Tracking 33094 objects as of 25-Jan-2026
HD Live streaming from Space Station
objects crossing your sky now

FALCON 9 R/B

Track FALCON 9 R/B now!
10-day predictions


NORAD ID: 43612
Int'l Code: 2018-069B
Perigee: 246.6 km
Apogee: 15,502.6 km
Inclination: 27.1 °
Period: 282.0 minutes
Semi major axis: 14245 km
RCS: Unknown
Launch date: September 10, 2018
Source: United States (US)
Launch site: AIR FORCE EASTERN TEST RANGE (AFETR)

Note: This is a ROCKET BODY
Your satellite tracking list
Your tracking list is empty




NASA's NSSDC Master Catalog

Two Line Element Set (TLE):
1 43612U 18069B   26024.86583584  .00030424  00000-0  18279-2 0  9993
2 43612  27.0668 271.4791 5354659  16.7090 355.7262  5.10600828126344
Source of the keplerian elements: AFSPC